When you browse on this site, cookies collect data to enhance your experience and personalize the content and advertising you see.
Visit our Privacy Policy to learn more. By continuing to use the site, you agree to this use of cookies and data.
  • In Lithuania
  • List of Countries
  • For 7 days
  • Water Temperature
  • Satellite Maps
  • Weather Map
  • Weather Widgets
  • user-avatar
    Login

    Hourly Weather Staraya Poltavka

    Today, 25 March, Monday

    Time Temperature Precipitation Wind Pressure Humidity
    00:00 -2°C° 0 mm 4 mps 753 mmHg 91%
    01:00 -4°C° 0 mm 5 mps 753 mmHg 91%
    02:00 -4°C° 0 mm 5 mps 753 mmHg 91%
    03:00 -4°C° 0 mm 6 mps 752 mmHg 91%
    04:00 -5°C° 0 mm 6 mps 752 mmHg 91%
    05:00 -5°C° 0 mm 6 mps 752 mmHg 90%
    06:00 -6°C° 0 mm 5 mps 753 mmHg 89%
    07:00 -5°C° 0 mm 6 mps 753 mmHg 89%
    08:00 -4°C° 0 mm 6 mps 753 mmHg 89%
    09:00 -3°C° 0 mm 7 mps 753 mmHg 89%
    10:00 -2°C° 0 mm 7 mps 753 mmHg 92%
    11:00 -2°C° 0 mm 6 mps 754 mmHg 96%
    12:00 -2°C° 0 mm 6 mps 754 mmHg 99%
    13:00 -2°C° 0 mm 6 mps 754 mmHg 99%
    14:00 -1°C° 0 mm 5 mps 755 mmHg 99%
    15:00 -1°C° 0 mm 5 mps 755 mmHg 99%
    16:00 -1°C° 0 mm 5 mps 756 mmHg 96%
    17:00 -1°C° 0 mm 4 mps 756 mmHg 93%
    18:00 -1°C° 0 mm 4 mps 757 mmHg 90%
    19:00 -2°C° 0 mm 4 mps 757 mmHg 91%
    20:00 -3°C° 0 mm 4 mps 758 mmHg 91%
    21:00 -4°C° 0 mm 3 mps 758 mmHg 92%
    22:00 -5°C° 0 mm 3 mps 759 mmHg 91%
    23:00 -5°C° 0 mm 3 mps 759 mmHg 90%

    Tomorrow, 26 March, Tuesday

    Time Temperature Precipitation Wind Pressure Humidity
    00:00 -4°C° 0 mm 2 mps 760 mmHg 90%
    01:00 -4°C° 0 mm 2 mps 760 mmHg 88%
    02:00 -4°C° 0 mm 2 mps 760 mmHg 86%
    03:00 -5°C° 0 mm 2 mps 761 mmHg 84%
    04:00 -5°C° 0 mm 2 mps 761 mmHg 84%
    05:00 -5°C° 0 mm 2 mps 761 mmHg 83%
    06:00 -5°C° 0 mm 2 mps 761 mmHg 83%
    07:00 -4°C° 0 mm 3 mps 761 mmHg 84%
    08:00 -2°C° 0 mm 3 mps 761 mmHg 85%
    09:00 0°C° 0 mm 3 mps 761 mmHg 87%
    10:00 -1°C° 0 mm 4 mps 761 mmHg 91%
    11:00 0°C° 0 mm 4 mps 761 mmHg 95%
    12:00 0°C° 0 mm 5 mps 760 mmHg 99%
    13:00 +1°C° 0 mm 5 mps 760 mmHg 99%
    14:00 +1°C° 0 mm 5 mps 759 mmHg 99%
    15:00 +3°C° 0 mm 4 mps 759 mmHg 99%
    16:00 +3°C° 0 mm 4 mps 759 mmHg 95%
    17:00 +3°C° 0 mm 4 mps 758 mmHg 91%
    18:00 +3°C° 0 mm 4 mps 758 mmHg 87%
    19:00 +2°C° 0 mm 5 mps 758 mmHg 86%
    20:00 +2°C° 0 mm 5 mps 759 mmHg 84%
    21:00 +2°C° 0 mm 5 mps 759 mmHg 82%
    22:00 +2°C° 0.2 mm 5 mps 759 mmHg 83%
    23:00 +1°C° 0.2 mm 5 mps 759 mmHg 83%

    Day after tomorrow, 27 March, Wednesday

    Time Temperature Precipitation Wind Pressure Humidity
    00:00 +1°C° 0.2 mm 4 mps 759 mmHg 83%
    01:00 +1°C° 0 mm 5 mps 759 mmHg 83%
    02:00 +1°C° 0 mm 5 mps 758 mmHg 83%
    03:00 +1°C° 0 mm 5 mps 758 mmHg 82%
    04:00 -1°C° 0 mm 6 mps 758 mmHg 81%
    05:00 -1°C° 0 mm 6 mps 758 mmHg 80%
    06:00 -1°C° 0 mm 6 mps 758 mmHg 79%
    07:00 -1°C° 0 mm 6 mps 758 mmHg 80%
    08:00 0°C° 0 mm 7 mps 758 mmHg 80%
    09:00 0°C° 0 mm 7 mps 758 mmHg 80%
    10:00 +2°C° 0 mm 7 mps 758 mmHg 79%
    11:00 +3°C° 0 mm 6 mps 758 mmHg 77%
    12:00 +4°C° 0 mm 6 mps 758 mmHg 75%
    13:00 +6°C° 0 mm 5 mps 758 mmHg 74%
    14:00 +6°C° 0 mm 5 mps 758 mmHg 73%
    15:00 +7°C° 0 mm 4 mps 758 mmHg 71%
    16:00 +7°C° 0 mm 3 mps 757 mmHg 74%
    17:00 +4°C° 0 mm 3 mps 757 mmHg 77%
    18:00 +4°C° 0 mm 2 mps 757 mmHg 81%
    19:00 +4°C° 0.2 mm 2 mps 757 mmHg 84%
    20:00 +3°C° 0.2 mm 2 mps 758 mmHg 87%
    21:00 +3°C° 0.2 mm 2 mps 758 mmHg 91%
    22:00 +1°C° 0.7 mm 3 mps 758 mmHg 92%
    23:00 +1°C° 0.7 mm 3 mps 758 mmHg 93%

    28 March, Thursday

    Time Temperature Precipitation Wind Pressure Humidity
    00:00 0°C° 0.7 mm 4 mps 757 mmHg 95%
    01:00 -1°C° 0.2 mm 4 mps 757 mmHg 94%
    02:00 -1°C° 0.2 mm 4 mps 757 mmHg 93%
    03:00 -1°C° 0.2 mm 4 mps 757 mmHg 93%
    04:00 -1°C° 0 mm 4 mps 758 mmHg 92%
    05:00 -2°C° 0 mm 4 mps 758 mmHg 92%
    06:00 -2°C° 0 mm 4 mps 758 mmHg 92%
    07:00 -1°C° 0 mm 5 mps 758 mmHg 89%
    08:00 -1°C° 0 mm 5 mps 758 mmHg 87%
    09:00 -1°C° 0 mm 6 mps 759 mmHg 85%
    10:00 -1°C° 0 mm 6 mps 759 mmHg 82%
    11:00 +1°C° 0 mm 6 mps 759 mmHg 79%
    12:00 +2°C° 0 mm 6 mps 759 mmHg 77%
    13:00 +2°C° 0 mm 6 mps 760 mmHg 72%
    14:00 +2°C° 0 mm 6 mps 760 mmHg 67%
    15:00 +2°C° 0 mm 6 mps 760 mmHg 62%
    16:00 +1°C° 0 mm 5 mps 760 mmHg 66%
    17:00 0°C° 0 mm 5 mps 761 mmHg 71%
    18:00 -1°C° 0 mm 4 mps 761 mmHg 75%
    19:00 -1°C° 0 mm 4 mps 762 mmHg 77%
    20:00 -1°C° 0 mm 4 mps 762 mmHg 79%
    21:00 -2°C° 0 mm 4 mps 762 mmHg 81%
    22:00 -2°C° 0 mm 4 mps 762 mmHg 82%
    23:00 -1°C° 0 mm 3 mps 762 mmHg 83%

    29 March, Friday

    Time Temperature Precipitation Wind Pressure Humidity
    00:00 -2°C° 0 mm 3 mps 762 mmHg 84%
    01:00 -2°C° 0 mm 3 mps 762 mmHg 85%
    02:00 -2°C° 0 mm 3 mps 762 mmHg 86%
    03:00 -4°C° 0 mm 3 mps 762 mmHg 87%
    04:00 -4°C° 0 mm 3 mps 762 mmHg 86%
    05:00 -4°C° 0 mm 3 mps 762 mmHg 85%
    06:00 -4°C° 0 mm 3 mps 762 mmHg 84%
    07:00 -2°C° 0 mm 4 mps 762 mmHg 80%
    08:00 -1°C° 0 mm 5 mps 762 mmHg 77%
    09:00 0°C° 0 mm 5 mps 762 mmHg 73%
    10:00 +1°C° 0 mm 5 mps 762 mmHg 71%
    11:00 +1°C° 0 mm 5 mps 762 mmHg 69%
    12:00 +2°C° 0 mm 5 mps 762 mmHg 67%
    13:00 +2°C° 0.1 mm 5 mps 761 mmHg 65%
    14:00 +2°C° 0.1 mm 5 mps 761 mmHg 64%
    15:00 +2°C° 0.1 mm 5 mps 761 mmHg 62%
    16:00 +1°C° 0 mm 4 mps 761 mmHg 65%
    17:00 +2°C° 0 mm 3 mps 761 mmHg 68%
    18:00 +1°C° 0 mm 3 mps 761 mmHg 71%
    19:00 +1°C° 0 mm 3 mps 761 mmHg 72%
    20:00 0°C° 0 mm 3 mps 761 mmHg 73%
    21:00 0°C° 0 mm 3 mps 762 mmHg 74%
    22:00 0°C° 0 mm 3 mps 762 mmHg 76%
    23:00 -1°C° 0 mm 3 mps 762 mmHg 77%

    30 March, Saturday

    Time Temperature Precipitation Wind Pressure Humidity
    00:00 -1°C° 0 mm 3 mps 762 mmHg 78%
    01:00 -1°C° 0 mm 3 mps 762 mmHg 78%
    02:00 -1°C° 0 mm 3 mps 762 mmHg 79%
    03:00 -2°C° 0 mm 2 mps 762 mmHg 79%
    04:00 -2°C° 0 mm 2 mps 763 mmHg 79%
    05:00 -1°C° 0 mm 2 mps 763 mmHg 78%
    06:00 -1°C° 0 mm 2 mps 763 mmHg 77%
    07:00 +1°C° 0 mm 2 mps 764 mmHg 72%
    08:00 +3°C° 0 mm 2 mps 764 mmHg 66%
    09:00 +3°C° 0 mm 3 mps 764 mmHg 61%
    10:00 +4°C° 0 mm 3 mps 764 mmHg 58%
    11:00 +5°C° 0 mm 4 mps 765 mmHg 56%
    12:00 +6°C° 0 mm 4 mps 765 mmHg 54%
    13:00 +6°C° 0 mm 5 mps 765 mmHg 54%
    14:00 +6°C° 0 mm 5 mps 764 mmHg 54%
    15:00 +6°C° 0 mm 5 mps 764 mmHg 55%
    16:00 +6°C° 0 mm 4 mps 765 mmHg 58%
    17:00 +5°C° 0 mm 3 mps 765 mmHg 62%
    18:00 +4°C° 0 mm 3 mps 765 mmHg 66%
    19:00 +5°C° 0 mm 2 mps 765 mmHg 68%
    20:00 +4°C° 0 mm 2 mps 765 mmHg 70%
    21:00 +3°C° 0 mm 2 mps 766 mmHg 73%
    22:00 +3°C° 0 mm 2 mps 766 mmHg 75%
    23:00 +1°C° 0 mm 3 mps 766 mmHg 77%
    Show more